CZ-6A DEB, 56629

Orbit data source: Space-Track

CZ-6A DEB, 56629 is space debris in SSO originally from a launch on Fri, 11 Nov 2022 UTC launched from the Taiyaun Space Center, China (TSC). Debris objects in space refer to the collection of defunct objects orbiting the Earth. Examples of debris include non-operational satellites, rocket bodies, and fragments generated from explosions, collisions, or faulty payload assembly.

Loading next visibility...
Identifier
56629, 2022-151AFD
Orbit
SSO
Country
Flag of CNCN / PRC
Related business
Manufacturer
SAST
Mission
Spacecraft
Bus & Motor
Unknown
Mass
Unknown
Launch date (UTC)
2022-11-11 (3 years ago)
Launch vehicle
Unknown
Launch site
Taiyaun Space Center, China (TSC)
Object type
Payload
Rocket body
Debris
Shape & HBR
Unknown shape, 0.1 m
Radar Cross Section
Small (<0.1 m²)

Expand to show TLE details & history
Last TLE update: 23 hours ago

TLE from 23 hours ago
0 CZ-6A DEB
1 56629U 22151AFD 25349.05737249  .00006731  00000-0  14302-2 0  9998
2 56629  98.6390  28.9728 0079047 174.8013 185.4023 14.57466914139803
Epoch: 2025-12-15T01:22Z
TLE epoch observation values (Epoch: 2025-12-15T01:22:36.983Z)
Latitude
-0.00004°
Longitude
-75.64269°
Altitude
760.061 km
Speed
7.445 km/s
True Right ascension
01h 55m 53s
True Declination
0° 00' 00"
Sunlit
Object was in full shadow at epoch
Visualization orbit readout
Latitude
Unknown
Longitude
Unknown
Altitude
Unknown
Speed
Unknown
Apparent Right ascension
Unknown
Apparent Declination
Unknown
Sunlit
N/A
Visualization observer readout
Local Sidereal Time
22:47:00
Azimuth
Unknown
Elevation
Unknown
Doppler factor
Unknown
Orbital elements
Apogee altitude
754.408 km
Perigee altitude
642.531 km
Semi-major axis
7,076.607 km
Eccentricity
0.0079
Inclination
98.639°
RAAN
28.9728°
Arg. of periapsis
174.8013°
True anomaly
185.31785°
Mean anomaly
185.4023°
Eccentric anomaly
185.35999°
Mean motion
3.64591 °/min
Orbital period
98.74 mins
BSTAR
0.0014302
Loading maneuver chart data...
Computing Atmospheric mass density...

Documentation

Showing up to 5 results
|